IW0RQH-13 Weather Reports


Display with metric or nautical units.
time (UTC)temp
F
wind
direction
speed
MPH
gust
MPH
rain 1hr
in
rain 24hr
in
rain mn
in
humidity
%
barometer
mb
20260507073603 60 146 5.0 8.0 0.00 0.09 0.06 77 1013.9
20260507072718 58 163 4.0 8.0 0.00 0.09 0.06 81 1013.9
20260507071803 59 160 5.0 9.0 0.00 0.09 0.06 83 1013.5
20260507070903 59 148 4.0 7.0 0.00 0.09 0.06 84 1013.7
20260507070005 59 149 4.0 10.0 0.00 0.09 0.06 83 1013.9
20260507065403 59 143 5.0 9.0 0.00 0.09 0.06 82 1013.7
20260507064504 59 145 4.0 8.0 0.00 0.09 0.06 82 1013.7
20260507063606 59 155 3.0 6.0 0.00 0.09 0.06 81 1013.5
20260507062704 59 150 3.0 5.0 0.00 0.10 0.06 82 1013.6
20260507061804 58 137 3.0 6.0 0.00 0.10 0.06 87 1013.5
20260507060905 57 91 3.0 4.0 0.00 0.11 0.06 88 1013.5
20260507060003 57 89 3.0 5.0 0.00 0.11 0.06 88 1013.4
20260507055403 57 90 3.0 5.0 0.00 0.11 0.06 88 1013.4
20260507054505 57 103 3.0 5.0 0.00 0.12 0.06 89 1013.6
20260507053603 57 123 5.0 8.0 0.00 0.12 0.06 89 1013.3
20260507052704 57 140 5.0 7.0 0.00 0.13 0.06 90 1013.2
20260507051824 56 108 4.0 7.0 0.00 0.13 0.06 90 1013.3
20260507050903 56 117 3.0 5.0 0.00 0.13 0.06 93 1013.2
20260507050024 56 130 2.0 3.0 0.00 0.13 0.06 92 1013.3
20260507045403 56 162 2.0 4.0 0.00 0.13 0.06 93 1013.2
20260507044504 56 155 2.0 3.0 0.00 0.14 0.06 93 1013.0
20260507043603 56 139 2.0 3.0 0.00 0.15 0.06 93 1012.9
20260507042703 56 137 2.0 4.0 0.00 0.15 0.06 92 1013.0
20260507041803 56 136 4.0 6.0 0.00 0.16 0.06 92 1012.8
20260507040903 57 118 3.0 6.0 0.00 0.15 0.06 92 1012.8
20260507040003 57 96 3.0 6.0 0.00 0.15 0.06 92 1012.8
20260507035403 56 91 2.0 4.0 0.00 0.15 0.06 91 1012.7
20260507034503 56 176 2.0 4.0 0.00 0.15 0.06 91 1012.6
20260507033606 56 152 4.0 7.0 0.00 0.15 0.06 91 1012.5
20260507032703 57 136 5.0 7.0 0.01 0.15 0.06 91 1012.3
20260507031803 57 139 4.0 6.0 0.01 0.15 0.06 90 1012.4
20260507030924 57 155 4.0 6.0 0.01 0.15 0.06 90 1012.6
20260507030003 57 182 3.0 6.0 0.01 0.15 0.06 90 1012.8
20260507025404 57 157 4.0 7.0 0.01 0.15 0.06 90 1012.7
20260507024503 57 147 5.0 7.0 0.00 0.15 0.06 89 1012.5
20260507023603 57 151 5.0 9.0 0.01 0.15 0.06 89 1012.6
20260507022703 57 149 4.0 9.0 0.01 0.15 0.05 90 1012.6
20260507021804 57 149 2.0 4.0 0.01 0.15 0.05 91 1012.5
20260507020903 57 158 2.0 3.0 0.01 0.15 0.05 91 1012.7
20260507020024 57 135 2.0 4.0 0.01 0.15 0.05 90 1012.3
20260507015403 57 116 2.0 5.0 0.01 0.18 0.05 90 1012.4
20260507014503 58 118 4.0 9.0 0.02 0.18 0.05 90 1012.3
20260507013606 58 128 5.0 8.0 0.01 0.17 0.05 90 1012.2
20260507012703 58 129 5.0 9.0 0.01 0.17 0.04 90 1012.3
20260507011805 58 124 4.0 7.0 0.00 0.17 0.04 89 1012.6
20260507010904 58 141 5.0 8.0 0.00 0.17 0.04 89 1012.6
20260507010003 58 147 5.0 8.0 0.00 0.17 0.04 89 1012.5
20260507005403 58 152 4.0 6.0 0.00 0.17 0.04 89 1012.4
20260507004503 58 124 5.0 9.0 0.00 0.16 0.04 89 1012.5
20260507003618 58 100 4.0 9.0 0.00 0.16 0.04 89 1012.4
20260507002705 58 117 4.0 6.0 0.00 0.16 0.04 89 1012.2
20260507001824 58 140 4.0 7.0 0.01 0.16 0.04 90 1012.6
20260507000924 58 153 4.0 7.0 0.01 0.16 0.04 90 1012.4
20260507000003 58 172 3.0 6.0 0.02 0.16 0.04 88 1012.4
20260506235403 58 157 4.0 9.0 0.02 0.16 0.04 88 1012.7
20260506234503 58 136 4.0 8.0 0.02 0.16 0.04 88 1012.7
20260506233603 58 128 4.0 7.0 0.02 0.16 0.04 88 1012.6
20260506232703 58 143 4.0 9.0 0.02 0.16 0.03 88 1012.6
20260506231804 58 132 5.0 9.0 0.02 0.15 0.03 90 1012.6
20260506230903 58 111 5.0 7.0 0.02 0.15 0.02 89 1012.9
20260506230003 59 104 4.0 6.0 0.02 0.15 0.02 88 1012.7
20260506225403 59 101 2.0 4.0 0.02 0.15 0.02 86 1013.1
20260506224503 59 117 3.0 6.0 0.03 0.15 0.02 84 1012.7
20260506223603 59 124 4.0 6.0 0.04 0.15 0.02 83 1012.6
20260506222703 59 109 4.0 6.0 0.04 0.14 0.01 82 1012.8
20260506221803 59 109 4.0 6.0 0.04 0.14 0.01 83 1012.8
20260506220914 59 116 3.0 4.0 0.03 0.13 0.01 82 1012.7
20260506220004 60 125 3.0 4.0 0.02 0.13 0.00 82 1012.8
20260506215403 60 141 3.0 5.0 0.02 0.12 0.12 81 1012.7
20260506214518 60 163 3.0 5.0 0.01 0.11 0.12 80 1012.6
20260506213603 60 171 4.0 8.0 0.01 0.11 0.11 77 1012.9
20260506212703 61 173 5.0 9.0 0.00 0.10 0.10 75 1012.7
20260506211824 61 186 5.0 11.0 0.00 0.10 0.10 73 1012.6
20260506210924 62 184 5.0 10.0 0.00 0.10 0.10 71 1012.7
20260506210003 62 180 6.0 12.0 0.00 0.10 0.10 71 1012.5
20260506205404 62 169 5.0 9.0 0.00 0.10 0.10 72 1012.7
20260506204503 61 181 5.0 9.0 0.00 0.10 0.10 72 1012.4
20260506203603 61 184 5.0 10.0 0.00 0.10 0.10 72 1012.6
20260506202703 61 212 5.0 9.0 0.00 0.10 0.10 73 1012.5
20260506201803 62 193 5.0 10.0 0.00 0.10 0.10 72 1012.5
20260506200903 62 183 5.0 15.0 0.00 0.10 0.10 71 1012.3
20260506200014 62 161 7.0 15.0 0.00 0.10 0.10 70 1012.0
20260506195403 62 168 5.0 8.0 0.00 0.10 0.10 73 1012.3
20260506194503 62 172 5.0 11.0 0.00 0.10 0.10 73 1012.6
20260506193603 62 169 7.0 14.0 0.00 0.10 0.10 72 1012.3
20260506192710 62 177 7.0 12.0 0.00 0.10 0.10 72 1012.3
20260506191803 62 185 8.0 14.0 0.00 0.10 0.10 72 1012.1
20260506190904 62 180 7.0 12.0 0.00 0.10 0.10 71 1012.2
20260506190024 62 186 6.0 11.0 0.00 0.10 0.10 72 1011.8
20260506185424 62 189 7.0 15.0 0.00 0.10 0.10 71 1011.8
20260506184503 62 210 9.0 18.0 0.00 0.10 0.10 73 1011.9
20260506183603 63 206 9.0 17.0 0.00 0.10 0.10 71 1011.8
20260506182703 64 201 9.0 17.0 0.00 0.10 0.10 69 1011.4
20260506181806 64 193 8.0 14.0 0.00 0.10 0.10 65 1011.4
20260506180903 64 190 8.0 19.0 0.00 0.10 0.10 63 1011.4
20260506180004 64 184 7.0 13.0 0.00 0.10 0.10 63 1011.4
20260506175403 65 195 8.0 15.0 0.00 0.10 0.10 63 1011.4
20260506174504 65 194 8.0 17.0 0.00 0.10 0.10 63 1011.3
20260506173603 65 188 8.0 18.0 0.00 0.10 0.10 63 1011.3
20260506172703 65 191 6.0 12.0 0.00 0.10 0.10 65 1011.3
20260506171804 65 196 7.0 14.0 0.00 0.10 0.10 65 1011.3
20260506170903 65 203 8.0 14.0 0.00 0.10 0.10 65 1011.3
20260506170003 65 207 10.0 17.0 0.00 0.10 0.10 65 1011.1
20260506165403 65 208 11.0 18.0 0.00 0.10 0.10 65 1011.3
20260506164503 66 205 9.0 18.0 0.00 0.10 0.10 64 1011.4
20260506163603 66 215 9.0 19.0 0.00 0.10 0.10 65 1011.0
20260506162703 66 209 10.0 19.0 0.00 0.10 0.10 64 1011.2
20260506161824 66 212 9.0 16.0 0.00 0.10 0.10 64 1011.0
20260506160903 67 214 12.0 21.0 0.00 0.10 0.10 62 1011.1
20260506160004 67 210 11.0 20.0 0.00 0.10 0.10 61 1010.9
20260506155403 67 210 11.0 18.0 0.00 0.10 0.10 61 1011.1
20260506154503 68 202 10.0 18.0 0.00 0.10 0.10 60 1010.9
20260506153603 68 191 10.0 21.0 0.00 0.10 0.10 59 1010.9
20260506152704 68 196 10.0 19.0 0.00 0.10 0.10 59 1010.9
20260506151804 69 195 9.0 18.0 0.00 0.10 0.10 59 1010.9
20260506150903 68 203 9.0 17.0 0.00 0.10 0.10 59 1010.8
20260506150003 68 193 10.0 20.0 0.00 0.10 0.10 58 1010.9
20260506145403 68 193 9.0 15.0 0.00 0.10 0.10 57 1010.8
20260506144503 68 208 11.0 20.0 0.00 0.10 0.10 56 1010.7
20260506143604 69 190 9.0 17.0 0.00 0.10 0.10 54 1011.0
20260506142703 69 190 8.0 17.0 0.00 0.10 0.10 55 1011.0
20260506141824 69 193 9.0 17.0 0.00 0.10 0.10 55 1010.7
20260506140903 69 182 10.0 21.0 0.00 0.10 0.10 55 1010.9
20260506140003 68 173 11.0 21.0 0.00 0.10 0.10 56 1010.7
20260506135403 69 177 10.0 19.0 0.00 0.10 0.10 55 1010.9
20260506134506 69 196 10.0 19.0 0.00 0.10 0.10 54 1011.2
20260506133603 69 205 10.0 18.0 0.00 0.10 0.10 55 1011.2
20260506132703 69 195 10.0 22.0 0.00 0.10 0.10 55 1011.4
20260506131803 69 186 7.0 15.0 0.00 0.10 0.10 55 1011.5
20260506130903 68 188 10.0 19.0 0.00 0.10 0.10 55 1011.4
20260506130003 69 183 9.0 22.0 0.00 0.10 0.10 54 1011.7
20260506125403 68 176 12.0 22.0 0.00 0.10 0.10 52 1011.4
20260506124503 69 180 12.0 22.0 0.00 0.10 0.10 52 1011.4
20260506123603 69 185 10.0 20.0 0.00 0.10 0.10 52 1011.1
20260506122724 69 201 10.0 22.0 0.00 0.10 0.10 53 1011.5
20260506121803 69 197 10.0 22.0 0.00 0.10 0.10 55 1011.3
20260506120924 69 203 12.0 22.0 0.00 0.10 0.10 54 1011.3
20260506120024 68 216 13.0 22.0 0.00 0.10 0.10 54 1011.3
20260506115403 68 217 15.0 26.0 0.00 0.10 0.10 53 1011.5
20260506114503 68 210 13.0 22.0 0.00 0.10 0.10 54 1011.6
20260506113603 68 217 13.0 22.0 0.00 0.10 0.10 54 1011.6
20260506112703 68 218 12.0 19.0 0.00 0.10 0.10 56 1011.4
20260506111806 68 190 10.0 17.0 0.00 0.10 0.10 54 1011.5
20260506110924 68 181 9.0 18.0 0.00 0.10 0.10 51 1011.6
20260506110024 68 184 9.0 18.0 0.00 0.10 0.10 51 1011.6
20260506105405 69 187 10.0 19.0 0.00 0.10 0.10 50 1011.8
20260506104503 69 198 11.0 21.0 0.00 0.10 0.10 49 1011.6
20260506103603 69 191 11.0 23.0 0.00 0.10 0.10 52 1011.7
20260506102703 69 185 10.0 21.0 0.00 0.10 0.10 54 1011.5
20260506101803 68 192 9.0 16.0 0.00 0.10 0.10 56 1011.7
20260506100903 67 192 9.0 17.0 0.00 0.10 0.10 58 1011.7
20260506100004 67 192 9.0 18.0 0.00 0.10 0.10 56 1011.5
20260506095403 65 200 8.0 18.0 0.00 0.10 0.10 59 1011.6
20260506094503 65 195 8.0 15.0 0.00 0.10 0.10 62 1011.8
20260506093603 66 193 8.0 14.0 0.00 0.10 0.10 60 1012.0
20260506092703 66 192 8.0 15.0 0.00 0.10 0.10 61 1012.0
20260506091808 65 198 9.0 15.0 0.00 0.10 0.10 63 1011.8
20260506090924 65 207 9.0 15.0 0.00 0.10 0.10 64 1011.8
20260506090003 65 204 8.0 15.0 0.00 0.10 0.10 64 1011.7
20260506085403 66 198 8.0 15.0 0.00 0.10 0.10 63 1011.8
20260506084504 64 190 7.0 14.0 0.00 0.10 0.10 66 1011.6
20260506083603 64 168 8.0 15.0 0.00 0.10 0.10 65 1011.8
20260506082703 64 158 8.0 15.0 0.00 0.10 0.10 65 1011.7
20260506081803 64 159 10.0 19.0 0.00 0.10 0.10 65 1011.6
20260506080924 64 158 8.0 20.0 0.00 0.10 0.10 63 1011.6